Change the Weather History Date:

Wednesday, December 18, 2013

  Actual Average Record
Temperature  
Mean Temperature 25 °F 32 °F  
Max Temperature 30 °F 40 °F 65 °F (1967)
Min Temperature 20 °F 24 °F -11 °F (1989)
Degree Days  
Heating Degree Days 40 33  
Month to date heating degree days 606 554  
Since 1 July heating degree days 1782 1695  
Cooling Degree Days 0 0  
Month to date cooling degree days 0 0  
Year to date cooling degree days 856 768  
Moisture  
Dew Point 19 °F    
Average Humidity 70    
Maximum Humidity 81    
Minimum Humidity 58    
Precipitation  
Precipitation 0.01 in 0.07 in 1.79 in (1990)
Month to date precipitation 2.42 1.51  
Year to date precipitation 37.18 36.79  
Sea Level Pressure  
Sea Level Pressure 30.18 in    
Wind  
Wind Speed 8 mph (SW)    
Max Wind Speed 16 mph    
Max Gust Speed 23 mph    
Visibility 8 miles    
Events      
T = Trace of Precipitation, MM = Missing Value Source: NWS Daily Summary

Daily Weather History Graph

Daily Weather History Graph

Search for Another Location

Airport or City:

Trip Planner

Search our weather history database for the weather conditions in past years. The results will help you decide how hot, cold, wet, or windy it might be!

Date:

Astronomy

Dec. 18, 2013 Rise Set
Actual Time 7:44 AM EST 5:04 PM EST
Civil Twilight 7:13 AM EST 5:35 PM EST
Nautical Twilight 6:39 AM EST 6:09 PM EST
Astronomical Twilight 6:06 AM EST 6:42 PM EST
Moon 6:35 PM EST 8:23 AM EST
Length of Visible Light 10h 21m
Length of Day
9h 20m
Full, 98% of the Moon is Illuminated
Dec 18
Full
Dec 25
Last Quarter
Jan 1
New
Jan 7
First Quarter
Jan 15
Full

Hourly Weather History & Observations

Time (EST) Temp. Windchill Dew Point Humidity Pressure Visibility Wind Dir Wind Speed Gust Speed Precip Events Conditions
12:53 AM 27.0 °F 23.0 °F 21.0 °F 78% 30.14 in 5.0 mi WSW 3.5 mph - N/A   Haze
1:53 AM 27.0 °F 20.5 °F 21.0 °F 78% 30.13 in 5.0 mi SSW 5.8 mph - N/A   Haze
2:53 AM 27.0 °F 19.5 °F 21.9 °F 81% 30.14 in 5.0 mi SW 6.9 mph - N/A   Haze
3:53 AM 28.0 °F 20.8 °F 21.0 °F 75% 30.14 in 7.0 mi SW 6.9 mph - N/A   Overcast
4:01 AM 28.4 °F 21.2 °F 21.2 °F 74% 30.11 in 7.0 mi SW 6.9 mph - N/A   Overcast
4:24 AM 28.4 °F 20.4 °F 21.2 °F 74% 30.12 in 7.0 mi WSW 8.1 mph - N/A   Overcast
4:53 AM 28.0 °F 18.6 °F 21.0 °F 75% 30.15 in 7.0 mi WSW 10.4 mph - N/A   Overcast
5:53 AM 28.0 °F 20.0 °F 21.0 °F 75% 30.16 in 7.0 mi WSW 8.1 mph - N/A   Overcast
6:53 AM 28.0 °F 19.3 °F 21.0 °F 75% 30.17 in 6.0 mi WSW 9.2 mph - N/A   Haze
7:53 AM 28.0 °F 17.5 °F 21.0 °F 75% 30.19 in 7.0 mi WSW 12.7 mph 18.4 mph N/A   Overcast
8:29 AM 28.4 °F 18.0 °F 19.4 °F 69% 30.16 in 6.0 mi WSW 12.7 mph 18.4 mph N/A   Haze
8:53 AM 27.0 °F 18.7 °F 19.9 °F 75% 30.20 in 6.0 mi West 8.1 mph - N/A   Haze
9:07 AM 26.6 °F 16.8 °F 19.4 °F 74% 30.17 in 6.0 mi WSW 10.4 mph - N/A   Haze
9:36 AM 26.6 °F 18.2 °F 19.4 °F 74% 30.19 in 5.0 mi West 8.1 mph - N/A   Haze
9:43 AM 26.6 °F 17.5 °F 19.4 °F 74% 30.19 in 5.0 mi West 9.2 mph 17.3 mph N/A   Haze
9:51 AM 26.6 °F 16.2 °F 19.4 °F 74% 30.19 in 5.0 mi WSW 11.5 mph - N/A   Haze
9:53 AM 27.0 °F 18.0 °F 19.9 °F 75% 30.22 in 5.0 mi West 9.2 mph - N/A   Haze
10:53 AM 26.1 °F 15.6 °F 17.1 °F 69% 30.24 in 9.0 mi WSW 11.5 mph - N/A   Overcast
11:53 AM 26.1 °F 15.0 °F 16.0 °F 66% 30.25 in 10.0 mi West 12.7 mph 18.4 mph N/A   Overcast
12:53 PM 27.0 °F 15.6 °F 17.1 °F 66% 30.24 in 10.0 mi WSW 13.8 mph - N/A   Mostly Cloudy
1:53 PM 28.9 °F 20.4 °F 18.0 °F 64% 30.22 in 10.0 mi West 9.2 mph - 0.01 in   Mostly Cloudy
2:04 PM 28.4 °F 19.1 °F 17.6 °F 64% 30.19 in 10.0 mi WSW 10.4 mph - N/A   Scattered Clouds
2:53 PM 28.0 °F 18.6 °F 16.0 °F 61% 30.24 in 10.0 mi WSW 10.4 mph 20.7 mph N/A   Clear
3:53 PM 28.0 °F 20.0 °F 16.0 °F 61% 30.24 in 10.0 mi WSW 8.1 mph - N/A   Clear
4:53 PM 28.0 °F 24.2 °F 16.0 °F 61% 30.23 in 10.0 mi WSW 3.5 mph - N/A   Clear
5:53 PM 27.0 °F - 16.0 °F 63% 30.23 in 9.0 mi Calm Calm - N/A   Clear
6:53 PM 25.0 °F 19.3 °F 16.0 °F 69% 30.21 in 10.0 mi SSE 4.6 mph - N/A   Clear
7:53 PM 23.0 °F 18.4 °F 16.0 °F 74% 30.20 in 10.0 mi SSW 3.5 mph - N/A   Clear
8:53 PM 24.1 °F 17.0 °F 16.0 °F 71% 30.18 in 10.0 mi South 5.8 mph - N/A   Clear
9:53 PM 28.0 °F 19.3 °F 18.0 °F 66% 30.15 in 10.0 mi South 9.2 mph - N/A   Clear
10:53 PM 28.9 °F 20.4 °F 18.0 °F 64% 30.12 in 10.0 mi South 9.2 mph - N/A   Clear
11:53 PM 30.0 °F 21.1 °F 17.1 °F 59% 30.10 in 10.0 mi South 10.4 mph - N/A   Clear